User: anonymous   Login
Location: Unspecified
(0.0000°N, 0.0000°E)
Time: 08:58:36
(UTC+00:00)
Language:

STARLINK-35122 - Orbit

View from above orbital plane
View from above orbital plane
View from above satellite
View from above satellite

Ground track
Ground track

The orbit is defined by the following mean orbital elements,

1 65510U          26144.77739977 +.00000000 +00000-0 +63058-3 0 00008
2 65510  53.1592 276.5733 0001024  77.7327 282.3790 15.34406465    06
Epoch (UTC): 24 May 2026 18:39:27
Eccentricity: 0.0001024
inclination: 53.1592°
perigee height: 462 km
apogee height: 463 km
right ascension of ascending node: 276.5733°
argument of perigee: 77.7327°
revolutions per day: 15.34406465
mean anomaly at epoch: 282.3790°

The dashed part of the orbit path shows where the satellite is in the earth's shadow,  

DLR